Regional Weather Roundup
Issued by NWS

Home | Current Version | Previous Version | Text Only | Print | Product List | Glossary On
Versions: 1 2 3 4 5 6 7 8 9 10 11 12 13 14 15 16 17 18 19 20 21 22 23 24 25 26 27 28 29 30 31 32 33 34 35 36 37 38 39 40 41 42 43 44 45 46 47 48 49 50
000
ASUS43 KMKX 201159
RWRWI

WISCONSIN REGIONAL WEATHER ROUNDUP
NATIONAL WEATHER SERVICE MILWAUKEE/SULLIVAN WI
600 AM CST SAT JAN 20 2018

NOTE: "FAIR" INDICATES FEW OR NO CLOUDS BELOW 12,000 FEET WITH NO
SIGNIFICANT WEATHER AND/OR OBSTRUCTIONS TO VISIBILITY.

WIZ001-002-006>008-014>016-023>028-201300-
NORTHWEST WISCONSIN

CITY           SKY/WX    TMP DP  RH WIND       PRES   REMARKS
SUPERIOR ARPT  FAIR      27  26  95 SW7       29.75S WCI  20
ASHLAND        FAIR      26  25  96 SW6       29.76R WCI  19
6HR MIN TEMP:  26; 6HR MAX TEMP:  36;

HAYWARD        HAZE      16  10  77 CALM      29.77R VSB 1
6HR MIN TEMP:  16; 6HR MAX TEMP:  24;

SIREN          FAIR      24  23  96 SW3       29.78S FOG
CUMBERLAND     FOG       19  18  93 W6        29.78R VSB<1/4 WCI  11
RICE LAKE      FAIR      13  11  93 CALM      29.80R FOG
CHETEK         FAIR      16  14  93 CALM      29.80R
LADYSMITH      FOG       13  10  89 CALM      29.78R VSB 3/4
EAU CLAIRE     NOT AVBL
MENOMONIE      FAIR      22  22  96 W5        29.81R FOG     WCI  16
NEW RICHMOND   FOG       15  13  92 CALM      29.81R VSB 3/4
OSCEOLA        FOG       17  17 100 CALM      29.83S VSB 1/4
$$

WIZ003>005-009-010-017-018-201300-
NORTH CENTRAL WISCONSIN

CITY           SKY/WX    TMP DP  RH WIND       PRES   REMARKS
MANITOWISH WTR FAIR      17  17 100 CALM      29.71S FOG
ARBOR VITAE    FAIR      29  27  92 CALM      29.72R
WOODRUFF       FAIR      29  27  92 CALM      29.72R
RHINELANDER    FAIR      30  27  88 NW5       29.73R WCI  25
6HR MIN TEMP:  27; 6HR MAX TEMP:  33;

EAGLE RIVER    FAIR      22  22 100 W3        29.72R FOG
6HR MIN TEMP:  20; 6HR MAX TEMP:  31;

LAND O LAKES   FAIR      15  13  93 CALM      29.73R
PHILLIPS       FOG       13  13  97 CALM      29.75R VSB 1/4
6HR MIN TEMP:  13; 6HR MAX TEMP:  28;

TOMAHAWK       FAIR      23  22  95 CALM      29.74R FOG
MEDFORD        FAIR      26  25  95 CALM      29.75R
MERRILL        FOG       20  19  98 CALM      29.76R VSB 1/2
6HR MIN TEMP:  20; 6HR MAX TEMP:  31;

$$

WIZ029-030-035-036-043>047-201300-
CENTRAL WISCONSIN

CITY           SKY/WX    TMP DP  RH WIND       PRES   REMARKS
WAUSAU         FAIR      30  27  88 NW7       29.74R WCI  23
6HR MIN TEMP:  29; 6HR MAX TEMP:  35;

MOSINEE        CLEAR     28  27  93 W5        29.76R WCI  23
MARSHFIELD     FAIR      29  27  92 W5        29.76R WCI  24
6HR MIN TEMP:  24; 6HR MAX TEMP:  33;

STEVENS POINT  FAIR      21  21 100 CALM      29.79R
WAUPACA        FAIR      31  28  86 CALM      29.78R
WAUTOMA        FAIR      22  21  96 CALM      29.80R
6HR MIN TEMP:  22; 6HR MAX TEMP:  33;

WISC RAPIDS    FAIR      24  20  84 SW3       29.80R
6HR MIN TEMP:  21; 6HR MAX TEMP:  34;

CAMP DOUGLAS   FAIR      22  21  99 CALM      29.79R FOG
6HR MIN TEMP:  19; 6HR MAX TEMP:  32;

$$

WIZ011>013-019>022-031-037>040-048>050-201300-
NORTHEAST WISCONSIN

CITY           SKY/WX    TMP DP  RH WIND       PRES   REMARKS
ANTIGO         FAIR      25  24  96 W3        29.73S
SHAWANO        FAIR      34  28  79 CALM      29.75S
6HR MIN TEMP:  34; 6HR MAX TEMP:  38;

OCONTO         FAIR      33  28  81 SW7       29.76R WCI  26
STURGEON BAY   FAIR      35  28  75 W7        29.76R WCI  29
6HR MIN TEMP:  35; 6HR MAX TEMP:  38;

GREEN BAY      FAIR      31  25  78 S6        29.78R WCI  25
6HR MIN TEMP:  30; 6HR MAX TEMP:  37;

MANITOWOC      FAIR      36  28  73 W8        29.78R WCI  30
6HR MIN TEMP:  35; 6HR MAX TEMP:  38;

APPLETON       PTCLDY    28  25  86 W3        29.76R
CLINTONVILLE   FAIR      28  25  86 SW5       29.77R WCI  23
OSHKOSH        FAIR      27  24  89 SW5       29.79R WCI  22
6HR MIN TEMP:  26; 6HR MAX TEMP:  37;

$$

WIZ032>034-041-042-053>061-201300-
SOUTHWEST WISCONSIN

CITY           SKY/WX    TMP DP  RH WIND       PRES   REMARKS
LA CROSSE      FOG       22  21  96 CALM      29.82R VSB 1/4
6HR MIN TEMP:  21; 6HR MAX TEMP:  33;

SPARTA         FAIR      20  19  97 CALM      29.81R
VIROQUA        FAIR      31  31 100 SW3       29.78R
6HR MIN TEMP:  29; 6HR MAX TEMP:  34;

BOSCOBEL       FAIR      25  23  92 CALM      29.82R
6HR MIN TEMP:  25; 6HR MAX TEMP:  36;

PRAIRIE DU CHI FAIR      28  26  91 CALM      29.82R
PLATTEVILLE    FAIR      30  28  92 S5        29.83R WCI  25
$$

WIZ056-057-062-063-064-067-068-201300-
SOUTH CENTRAL WISCONSIN

CITY           SKY/WX    TMP DP  RH WIND       PRES   REMARKS
REEDSBURG      FAIR      26  26 100 CALM      29.80R
BARABOO/DELLS  FAIR      32  28  84 SW6       29.80R WCI  26
LONE ROCK      NOT AVBL
MINERAL POINT  FAIR      32  32 100 SW5       29.81R WCI  27
MADISON        MOCLDY    27  24  89 S3        29.82R
6HR MIN TEMP:  27; 6HR MAX TEMP:  36;

MIDDLETON      FAIR      31  27  86 SW3       29.82R
WATERTOWN      FAIR      28  28  99 SW3       29.81R
MONROE         FAIR      32  28  86 SW9       29.82R WCI  24
JANESVILLE     FAIR      32  28  86 SW3       29.83R
$$

WIZ051-052-058>065-066-070>072-201300-
SOUTHEAST WISCONSIN

CITY           SKY/WX    TMP DP  RH WIND       PRES   REMARKS
MILWAUKEE      MOCLDY    36  28  73 SW3       29.81R
6HR MIN TEMP:  36; 6HR MAX TEMP:  42;

WAUKESHA       CLEAR     32  27  80 W7        29.83R WCI  26
MILWAUKEE/TIMM FAIR      34  27  75 W5        29.82R WCI  30
RACINE         FAIR      37  29  72 W8        29.84R WCI  31
6HR MIN TEMP:  37; 6HR MAX TEMP:  41;

BURLINGTON     FAIR      34  28  77 W3        29.82R
KENOSHA        FAIR      35  27  72 W8        29.83R WCI  29
6HR MIN TEMP:  35; 6HR MAX TEMP:  41;

FOND DU LAC    FAIR      32  25  75 SW7       29.79R WCI  26
6HR MIN TEMP:  32; 6HR MAX TEMP:  37;

SHEBOYGAN      FAIR      31  27  85 SW7       29.79R WCI  24
6HR MIN TEMP:  30; 6HR MAX TEMP:  38;

WEST BEND      FAIR      32  28  86 W3        29.80R
JUNEAU         FAIR      28  25  88 SW5       29.82R WCI  23
$$

LSZ147-162-201300-
LAKE SUPERIOR

STATION/POSITION TIME  TEMP    WIND        PRES    WAVE
                       AIR SEA DIR/SP/G            HT/PER
                 (UTC) (F)     (DEG/KT/KT) (MB)    (FT/S)
DEVILS ISLAND    1100   34     240/ 14/ 16 1006.7R
SAXON HARBOR     1140   31     200/  6/  8 1007.1R
$$

LMZ867-665-643>646-201300-
LAKE MICHIGAN

STATION/POSITION TIME  TEMP    WIND        PRES    WAVE
                       AIR SEA DIR/SP/G            HT/PER
                 (UTC) (F)     (DEG/KT/KT) (MB)    (FT/S)
NORTHPORT PIER   1140   34     260/ 10/ 21 1007.1R
KEWAUNEE LAKESHO 1130   36     270/  7/ 10 1006.9R
SHEBOYGAN LAKESH 1100   38     260/ 11/ 14 1008.1R
PORT WASHINGTON  1140   36     280/  8/ 12 1009.8R
MILWAUKEE LAKESH 1130   38     270/  9/ 11   N/A
KENOSHA   LAKESH 1100   38     260/  9/ 14 1009.5
$$

TC  - TEMPERATURE IN CELSIUS
VSB - VISIBILITY IN STATUTE MILES
WCI - WIND CHILL INDEX
HX  - HEAT INDEX




USA.gov is the U.S. government's official web portal to all federal, state and local government web resources and services.